Location: Colle Santa Colomba
(42.0333°N, 12.5667°E)
Time: 04:08:05
(UTC+00:00)

Cosmos 2219 Rocket - Pass Details

Date: 25 October 2021
Orbit: 826 x 848 km, 71.0° (Epoch: 05 December)

Event Time Altitude Azimuth Distance (km) Brightness Sun altitude
Rises 17:53:04 0° 183° (S) 3,349 5.3 -19.2°
Reaches altitude 10° 17:55:35 10° 176° (S) 2,421 4.5 -19.7°
Maximum altitude 18:00:47 43° 106° (ESE) 1,152 2.4 -20.6°
Enters shadow 18:01:18 42° 92° (E) 1,172 2.4 -20.7°
